When you browse on this site, cookies collect data to enhance your experience and personalize the content and advertising you see.
Visit our Privacy Policy to learn more. By continuing to use the site, you agree to this use of cookies and data.
  • In Latvia
  • List of Countries
  • For 7 days
  • Water Temperature
  • Weather Map
  • Weather Widgets
  • user-avatar
    Login

    Hourly Weather Jewłach

    Today, 22 October, Tuesday

    Time Temperature Precipitation Wind Pressure Humidity
    00:00 +17°C° 0 mm 3 mps 766 mmHg 65%
    01:00 +16°C° 0 mm 3 mps 766 mmHg 68%
    02:00 +16°C° 0 mm 2 mps 765 mmHg 71%
    03:00 +15°C° 0 mm 1 mps 765 mmHg 73%
    04:00 +15°C° 0 mm 1 mps 766 mmHg 76%
    05:00 +14°C° 0 mm 1 mps 766 mmHg 79%
    06:00 +14°C° 0 mm 1 mps 766 mmHg 82%
    07:00 +15°C° 0 mm 1 mps 766 mmHg 75%
    08:00 +18°C° 0 mm 1 mps 766 mmHg 68%
    09:00 +20°C° 0 mm 1 mps 766 mmHg 61%
    10:00 +21°C° 0 mm 1 mps 765 mmHg 55%
    11:00 +22°C° 0 mm 1 mps 765 mmHg 48%
    12:00 +23°C° 0 mm 2 mps 765 mmHg 42%
    13:00 +24°C° 0 mm 2 mps 764 mmHg 40%
    14:00 +24°C° 0 mm 2 mps 764 mmHg 37%
    15:00 +24°C° 0 mm 2 mps 764 mmHg 38%
    16:00 +23°C° 0 mm 2 mps 764 mmHg 41%
    17:00 +21°C° 0 mm 2 mps 764 mmHg 44%
    18:00 +20°C° 0 mm 2 mps 765 mmHg 47%
    19:00 +19°C° 0 mm 2 mps 765 mmHg 49%
    20:00 +19°C° 0 mm 2 mps 765 mmHg 51%
    21:00 +18°C° 0 mm 2 mps 765 mmHg 53%
    22:00 +18°C° 0 mm 2 mps 765 mmHg 59%
    23:00 +17°C° 0 mm 2 mps 765 mmHg 65%

    Tomorrow, 23 October, Wednesday

    Time Temperature Precipitation Wind Pressure Humidity
    00:00 +16°C° 0 mm 2 mps 765 mmHg 71%
    01:00 +16°C° 0 mm 2 mps 765 mmHg 74%
    02:00 +16°C° 0 mm 2 mps 765 mmHg 77%
    03:00 +15°C° 0 mm 1 mps 765 mmHg 81%
    04:00 +15°C° 0 mm 1 mps 765 mmHg 83%
    05:00 +14°C° 0 mm 1 mps 765 mmHg 85%
    06:00 +13°C° 0 mm 0 mps 765 mmHg 87%
    07:00 +16°C° 0 mm 1 mps 765 mmHg 80%
    08:00 +18°C° 0 mm 1 mps 765 mmHg 73%
    09:00 +19°C° 0 mm 1 mps 765 mmHg 66%
    10:00 +21°C° 0 mm 1 mps 765 mmHg 60%
    11:00 +21°C° 0 mm 2 mps 764 mmHg 53%
    12:00 +23°C° 0 mm 2 mps 764 mmHg 47%
    13:00 +24°C° 0 mm 2 mps 764 mmHg 44%
    14:00 +24°C° 0 mm 2 mps 763 mmHg 42%
    15:00 +25°C° 0 mm 2 mps 763 mmHg 39%
    16:00 +23°C° 0 mm 2 mps 763 mmHg 42%
    17:00 +21°C° 0 mm 2 mps 764 mmHg 46%
    18:00 +20°C° 0 mm 2 mps 764 mmHg 50%
    19:00 +19°C° 0 mm 3 mps 764 mmHg 53%
    20:00 +19°C° 0 mm 3 mps 765 mmHg 57%
    21:00 +18°C° 0 mm 4 mps 765 mmHg 60%
    22:00 +17°C° 0 mm 3 mps 765 mmHg 67%
    23:00 +16°C° 0 mm 3 mps 765 mmHg 74%

    Day after tomorrow, 24 October, Thursday

    Time Temperature Precipitation Wind Pressure Humidity
    00:00 +16°C° 0 mm 3 mps 765 mmHg 81%
    01:00 +15°C° 0 mm 2 mps 765 mmHg 83%
    02:00 +15°C° 0 mm 2 mps 765 mmHg 85%
    03:00 +15°C° 0 mm 1 mps 765 mmHg 87%
    04:00 +14°C° 0 mm 1 mps 765 mmHg 88%
    05:00 +14°C° 0 mm 1 mps 765 mmHg 89%
    06:00 +13°C° 0 mm 0 mps 765 mmHg 90%
    07:00 +14°C° 0 mm 0 mps 765 mmHg 82%
    08:00 +16°C° 0 mm 0 mps 765 mmHg 75%
    09:00 +18°C° 0 mm 0 mps 765 mmHg 67%
    10:00 +19°C° 0 mm 0 mps 764 mmHg 61%
    11:00 +22°C° 0 mm 1 mps 764 mmHg 56%
    12:00 +23°C° 0 mm 1 mps 764 mmHg 50%
    13:00 +24°C° 0 mm 1 mps 763 mmHg 48%
    14:00 +24°C° 0 mm 1 mps 763 mmHg 45%
    15:00 +25°C° 0 mm 1 mps 763 mmHg 43%
    16:00 +23°C° 0 mm 1 mps 763 mmHg 47%
    17:00 +21°C° 0 mm 2 mps 763 mmHg 51%
    18:00 +20°C° 0 mm 2 mps 763 mmHg 55%
    19:00 +19°C° 0 mm 2 mps 764 mmHg 57%
    20:00 +19°C° 0 mm 2 mps 764 mmHg 60%
    21:00 +18°C° 0 mm 2 mps 764 mmHg 63%
    22:00 +18°C° 0 mm 2 mps 764 mmHg 68%
    23:00 +17°C° 0 mm 2 mps 764 mmHg 72%

    25 October, Friday

    Time Temperature Precipitation Wind Pressure Humidity
    00:00 +16°C° 0 mm 2 mps 764 mmHg 77%
    01:00 +16°C° 0 mm 2 mps 764 mmHg 80%
    02:00 +16°C° 0 mm 1 mps 763 mmHg 82%
    03:00 +15°C° 0 mm 1 mps 763 mmHg 85%
    04:00 +15°C° 0 mm 1 mps 763 mmHg 86%
    05:00 +14°C° 0 mm 0 mps 763 mmHg 87%
    06:00 +14°C° 0 mm 0 mps 763 mmHg 88%
    07:00 +15°C° 0 mm 0 mps 763 mmHg 80%
    08:00 +17°C° 0 mm 0 mps 763 mmHg 73%
    09:00 +18°C° 0 mm 0 mps 763 mmHg 66%
    10:00 +20°C° 0 mm 0 mps 762 mmHg 60%
    11:00 +23°C° 0 mm 1 mps 762 mmHg 55%
    12:00 +24°C° 0 mm 1 mps 762 mmHg 49%
    13:00 +24°C° 0 mm 1 mps 761 mmHg 47%
    14:00 +25°C° 0 mm 1 mps 761 mmHg 45%
    15:00 +25°C° 0 mm 1 mps 761 mmHg 43%
    16:00 +24°C° 0 mm 2 mps 761 mmHg 47%
    17:00 +21°C° 0 mm 2 mps 761 mmHg 52%
    18:00 +20°C° 0 mm 2 mps 762 mmHg 56%
    19:00 +20°C° 0 mm 2 mps 762 mmHg 58%
    20:00 +19°C° 0 mm 2 mps 762 mmHg 61%
    21:00 +18°C° 0 mm 2 mps 762 mmHg 63%
    22:00 +18°C° 0 mm 2 mps 762 mmHg 72%
    23:00 +17°C° 0 mm 3 mps 762 mmHg 80%

    26 October, Saturday

    Time Temperature Precipitation Wind Pressure Humidity
    00:00 +16°C° 0 mm 3 mps 762 mmHg 88%
    01:00 +16°C° 0 mm 2 mps 762 mmHg 90%
    02:00 +16°C° 0 mm 2 mps 762 mmHg 92%
    03:00 +16°C° 0 mm 1 mps 762 mmHg 93%
    04:00 +16°C° 0 mm 1 mps 762 mmHg 94%
    05:00 +16°C° 0 mm 1 mps 762 mmHg 94%
    06:00 +14°C° 0 mm 0 mps 763 mmHg 94%
    07:00 +16°C° 0.3 mm 0 mps 763 mmHg 89%
    08:00 +19°C° 0.3 mm 1 mps 763 mmHg 83%
    09:00 +20°C° 0.3 mm 1 mps 763 mmHg 78%
    10:00 +21°C° 1 mm 1 mps 763 mmHg 73%
    11:00 +21°C° 1 mm 2 mps 762 mmHg 68%
    12:00 +21°C° 1 mm 2 mps 762 mmHg 63%
    13:00 +23°C° 0.6 mm 2 mps 762 mmHg 61%
    14:00 +23°C° 0.6 mm 2 mps 761 mmHg 59%
    15:00 +23°C° 0.6 mm 2 mps 761 mmHg 56%
    16:00 +21°C° 0.2 mm 2 mps 761 mmHg 61%
    17:00 +21°C° 0.2 mm 1 mps 762 mmHg 65%
    18:00 +20°C° 0.2 mm 1 mps 762 mmHg 70%
    19:00 +20°C° 0.3 mm 1 mps 762 mmHg 71%
    20:00 +20°C° 0.3 mm 1 mps 762 mmHg 72%
    21:00 +19°C° 0.3 mm 1 mps 762 mmHg 74%
    22:00 +19°C° 0.6 mm 1 mps 762 mmHg 77%
    23:00 +18°C° 0.6 mm 1 mps 762 mmHg 80%

    27 October, Sunday

    Time Temperature Precipitation Wind Pressure Humidity
    00:00 +18°C° 0.6 mm 1 mps 762 mmHg 83%
    01:00 +18°C° 0.7 mm 1 mps 762 mmHg 85%
    02:00 +16°C° 0.7 mm 1 mps 762 mmHg 87%
    03:00 +15°C° 0.7 mm 0 mps 762 mmHg 89%
    04:00 +15°C° 0.1 mm 0 mps 762 mmHg 89%
    05:00 +15°C° 0.1 mm 0 mps 762 mmHg 88%
    06:00 +15°C° 0.1 mm 0 mps 762 mmHg 87%
    07:00 +16°C° 0 mm 0 mps 762 mmHg 83%
    08:00 +17°C° 0 mm 0 mps 762 mmHg 79%
    09:00 +20°C° 0 mm 1 mps 762 mmHg 74%
    10:00 +21°C° 0 mm 1 mps 761 mmHg 70%
    11:00 +22°C° 0 mm 1 mps 761 mmHg 65%
    12:00 +23°C° 0 mm 1 mps 760 mmHg 60%
    13:00 +23°C° 0 mm 1 mps 760 mmHg 58%
    14:00 +23°C° 0 mm 1 mps 760 mmHg 56%
    15:00 +23°C° 0 mm 1 mps 759 mmHg 54%
    16:00 +23°C° 0 mm 1 mps 759 mmHg 57%
    17:00 +21°C° 0 mm 2 mps 759 mmHg 60%
    18:00 +21°C° 0 mm 2 mps 759 mmHg 63%
    19:00 +20°C° 0 mm 2 mps 760 mmHg 65%
    20:00 +20°C° 0 mm 2 mps 760 mmHg 66%
    21:00 +19°C° 0 mm 2 mps 760 mmHg 68%
    22:00 +18°C° 0 mm 2 mps 760 mmHg 68%
    23:00 +18°C° 0 mm 2 mps 759 mmHg 68%

    28 October, Monday

    Time Temperature Precipitation Wind Pressure Humidity
    00:00 +17°C° 0 mm 2 mps 759 mmHg 68%
    01:00 +18°C° 0 mm 1 mps 759 mmHg 68%
    02:00 +16°C° 0 mm 1 mps 759 mmHg 68%
    03:00 +15°C° 0 mm 0 mps 759 mmHg 68%
    04:00 +16°C° 0 mm 1 mps 759 mmHg 69%
    05:00 +16°C° 0 mm 1 mps 759 mmHg 69%
    06:00 +16°C° 0 mm 1 mps 759 mmHg 70%
    07:00 +17°C° 0 mm 2 mps 759 mmHg 68%
    08:00 +18°C° 0 mm 2 mps 759 mmHg 66%
    09:00 +19°C° 0 mm 3 mps 759 mmHg 64%
    10:00 +20°C° 0 mm 3 mps 759 mmHg 61%
    11:00 +21°C° 0 mm 3 mps 758 mmHg 57%
    12:00 +22°C° 0 mm 3 mps 758 mmHg 53%
    13:00 +22°C° 0 mm 3 mps 758 mmHg 51%
    14:00 +24°C° 0 mm 2 mps 758 mmHg 49%
    15:00 +24°C° 0 mm 2 mps 758 mmHg 47%
    16:00 +23°C° 0 mm 2 mps 758 mmHg 51%
    17:00 +22°C° 0 mm 1 mps 758 mmHg 56%
    18:00 +21°C° 0 mm 1 mps 759 mmHg 60%
    19:00 +20°C° 0 mm 1 mps 759 mmHg 61%
    20:00 +20°C° 0 mm 1 mps 759 mmHg 62%
    21:00 +19°C° 0 mm 1 mps 760 mmHg 63%
    22:00 +19°C° 0 mm 1 mps 760 mmHg 64%
    23:00 +19°C° 0 mm 1 mps 760 mmHg 65%
    Show more